Temp
65 64 63 62 63 64 65 65 65 66 66 66 67 66 66 66 67 66 65 64 64 62 60 60 60 60 59 58 57 56 56 55 53 55 58 60 60 61 62 62 62 61 61
63 63 64 64 65 65 65 65 65 65 66 67 68 68 67 68 66 65 63 64 62 60 60 60 60 61 59 58 58 56 56 56 55 54 58 60 59 61 61 61 62 62 62
64 65 66 65 65 64 65 65 66 66 68 68 67 67 68 66 64 65 66 63 61 61 61 60 61 60 59 57 57 56 55 57 57 57 58 60 60 60 59 60 59 60 61
66 66 66 66 66 66 66 67 66 67 66 66 67 67 68 67 67 66 64 61 61 61 62 61 61 61 62 60 57 56 57 57 59 60 59 58 58 59 59 58 57 59 58
67 66 67 66 66 67 67 67 66 67 67 68 67 67 67 66 65 62 62 61 60 60 61 62 62 63 61 60 58 56 57 57 58 59 58 57 57 57 57 57 57 57 58
66 66 66 66 67 67 67 65 66 65 67 67 65 65 61 60 51 54 60 60 60 60 59 60 60 60 58 56 57 56 58 59 60 58 55 57 57 57 57 57 57 57 54
66 66 67 67 66 66 67 66 66 64 62 60 58 58 57 55 47 49 53 60 59 59 58 58 59 61 59 58 53 54 53 53 58 58 59 59 57 58 58 57 57 55 56
66 67 68 68 67 67 67 65 63 61 59 58 57 58 57 55 47 48 51 59 58 58 58 59 59 59 59 58 58 57 57 57 57 59 58 57 57 59 61 61 55 57 57
66 67 69 69 67 66 65 62 60 59 58 57 58 57 57 56 47 47 55 57 57 58 59 60 61 60 49 48 58 56 55 54 50 51 51 49 48 50 56 58 55 57 54
67 69 70 69 68 65 63 60 59 59 59 58 56 58 54 56 45 47 54 57 57 57 57 56 50 55 46 48 58 57 56 55 55 55 55 51 52 53 52 62 59 57 55
70 70 69 68 64 62 60 62 61 59 57 56 56 57 58 55 52 46 49 58 58 56 56 55 52 44 43 45 50 57 56 55 53 57 57 56 56 57 58 59 61 60 54
67 67 66 66 66 65 62 61 60 58 57 56 57 57 58 57 49 46 47 51 52 58 56 54 50 44 44 46 51 43 46 53 58 57 56 56 56 57 57 58 59 59 60
64 63 67 66 65 64 62 59 58 58 57 57 57 57 57 56 53 44 44 46 49 57 57 49 43 42 43 45 43 44 49 58 57 56 55 56 57 58 58 57 58 60 60
62 61 64 64 62 62 61 60 59 57 57 57 57 57 57 56 55 55 54 53 48 49 48 50 48 47 48 48 52 55 57 58 57 56 56 56 57 57 57 57 56 57 57
62 60 62 62 58 53 49 52 58 56 57 58 58 59 57 55 55 52 53 56 55 52 54 56 56 55 55 55 56 56 57 57 57 57 56 56 56 56 56 57 57 56 55
62 60 57 56 56 54 53 51 41 43 45 47 49 54 55 47 44 44 43 43 44 46 55 55 55 55 55 55 55 55 56 55 56 57 57 57 56 56 56 57 57 55 54
61 59 56 56 55 55 55 55 53 47 42 42 42 43 46 45 42 41 42 41 43 49 56 55 55 56 56 56 56 56 55 56 58 58 58 57 57 57 54 56 57 56 55
59 51 59 57 57 56 57 56 57 58 56 53 43 43 41 41 40 40 42 48 54 53 55 55 56 54 56 56 55 55 56 56 57 58 57 58 58 58 56 55 55 53 53
61 59 58 57 57 55 57 58 59 58 56 52 50 46 41 39 39 41 44 56 56 55 55 55 56 56 55 55 55 56 57 56 56 57 57 58 58 58 57 54 53 46 47
60 50 54 58 57 57 56 58 57 56 56 56 55 52 49 51 53 53 55 56 58 58 58 57 57 57 57 58 57 57 56 54 56 57 58 59 59 57 55 55 54 54 53
58 57 51 59 58 57 57 57 58 58 58 56 54 50 41 54 55 56 57 54 53 53 57 58 58 57 59 58 59 59 58 58 59 59 59 60 58 58 59 60 60 57 56
60 60 60 60 59 57 57 59 59 58 57 55 55 48 37 56 57 53 51 49 47 48 48 49 48 49 48 47 48 54 59 59 58 58 58 60 60 58 58 59 61 60 59
62 60 60 60 58 52 58 59 59 59 58 58 58 55 55 52 50 48 46 45 44 44 43 44 46 46 46 46 45 46 49 49 51 53 55 57 57 57 58 58 58 58 56
60 59 59 59 59 58 58 57 56 51 58 57 55 52 49 47 47 45 43 41 40 42 42 42 42 40 40 42 43 44 44 46 52 55 56 57 56 54 56 55 53 53 52
53 54 55 55 54 54 56 57 54 52 51 52 51 49 49 47 45 44 44 43 42 40 40 40 41 41 40 38 39 40 36 37 43 41 51 53 52 51 51 52 51 50 49
49 48 49 50 50 50 49 48 47 47 46 45 44 44 45 44 44 43 42 41 40 39 40 39 40 39 39 38 37 35 36 37 41 39 51 50 49 49 49 51 51 50 50
MSLP
995.26 995.48 995.94 996.24 996.88 997.70 998.20 998.60 999.25 999.92 999.98 1000.48 1001.23 1001.87 1002.32 1002.85 1003.26 1003.81 1004.48 1005.15 1005.66 1006.20 1006.59 1006.95 1007.42 1007.64 1008.13 1008.53 1008.89 1009.21 1009.51 1009.81 1010.35 1010.70 1010.62 1010.63 1010.73 1010.90 1010.94 1011.01 1011.16 1011.50 1011.94
994.35 995.01 995.43 995.97 996.68 997.25 997.70 998.51 999.03 999.29 999.90 1000.38 1001.08 1001.65 1002.21 1002.72 1003.21 1003.91 1004.57 1005.12 1005.61 1006.10 1006.43 1006.95 1007.32 1007.63 1008.04 1008.41 1008.76 1009.13 1009.33 1009.54 1009.93 1010.46 1010.63 1010.80 1011.09 1011.25 1011.27 1011.32 1011.81 1012.06 1012.34
993.95 994.62 995.21 995.81 996.35 996.89 997.66 998.09 998.59 999.22 999.82 1000.39 1001.03 1001.59 1002.11 1002.74 1003.36 1003.78 1004.35 1005.07 1005.53 1005.82 1006.22 1006.66 1007.04 1007.44 1007.90 1008.31 1008.58 1009.00 1009.27 1009.44 1009.71 1010.04 1010.52 1010.83 1011.21 1011.50 1011.78 1012.10 1012.33 1012.60 1012.75
993.73 994.10 994.65 995.46 995.92 996.55 997.31 997.96 998.43 999.17 999.72 1000.48 1001.01 1001.50 1002.12 1002.77 1003.36 1003.99 1004.46 1004.95 1005.33 1005.58 1005.93 1006.33 1006.75 1007.09 1007.45 1007.99 1008.36 1008.89 1009.16 1009.54 1009.80 1010.13 1010.54 1010.96 1011.39 1011.83 1012.05 1012.42 1012.91 1013.16 1013.40
993.54 993.87 994.62 995.12 996.02 996.86 997.30 997.79 998.57 999.18 999.82 1000.37 1001.04 1001.75 1002.29 1002.95 1003.60 1004.11 1004.46 1004.94 1005.23 1005.61 1005.90 1006.22 1006.53 1006.73 1006.99 1007.45 1008.03 1008.69 1009.11 1009.54 1009.89 1010.29 1010.67 1011.03 1011.57 1012.00 1012.35 1012.75 1013.08 1013.52 1013.88
993.81 994.40 994.83 995.45 996.18 996.85 997.38 998.17 998.82 999.54 999.97 1000.54 1001.35 1002.09 1002.93 1003.55 1003.97 1003.96 1004.33 1004.83 1005.20 1005.52 1005.85 1006.19 1006.41 1006.68 1007.00 1007.35 1007.68 1008.07 1008.52 1009.12 1009.67 1010.24 1010.72 1011.07 1011.52 1012.09 1012.56 1012.90 1013.26 1013.75 1014.41
993.87 994.67 994.93 995.45 996.05 996.87 997.85 998.42 999.13 999.88 1000.40 1001.11 1001.97 1002.76 1003.47 1004.01 1004.26 1004.28 1004.40 1004.76 1005.18 1005.52 1005.83 1006.18 1006.48 1006.67 1006.95 1007.45 1007.89 1008.09 1008.63 1008.88 1008.97 1009.51 1010.36 1010.97 1011.45 1011.87 1012.35 1012.98 1013.40 1013.79 1014.23
994.48 994.67 994.84 995.43 996.04 997.17 998.03 998.78 999.58 1000.26 1001.09 1001.88 1002.68 1003.28 1003.80 1004.43 1004.42 1004.52 1004.59 1004.91 1005.34 1005.56 1005.73 1006.00 1006.32 1006.72 1007.03 1007.31 1008.04 1008.51 1008.99 1009.33 1009.64 1009.80 1010.23 1010.71 1010.99 1011.67 1012.00 1012.65 1013.32 1014.00 1014.49
994.54 994.57 994.65 995.61 996.76 997.85 998.57 999.51 1000.16 1000.90 1001.83 1002.43 1003.11 1003.59 1004.08 1004.53 1004.70 1004.71 1004.84 1005.30 1005.65 1005.79 1005.81 1006.04 1006.32 1006.31 1006.96 1007.37 1007.93 1008.57 1009.22 1009.78 1010.01 1009.98 1010.25 1010.69 1011.06 1011.54 1012.01 1012.78 1013.46 1013.96 1014.70
993.85 994.20 995.13 996.25 997.19 998.14 999.02 999.92 1000.60 1001.32 1002.30 1002.95 1003.63 1003.96 1004.40 1004.83 1005.13 1005.10 1005.24 1005.61 1005.93 1006.05 1006.27 1006.64 1006.73 1007.02 1007.43 1007.68 1007.86 1008.57 1009.41 1010.01 1010.25 1010.74 1011.26 1011.71 1011.56 1011.79 1012.17 1012.46 1013.11 1013.66 1014.38
993.42 994.50 995.78 996.66 997.53 998.52 999.47 1000.15 1001.03 1001.96 1002.77 1003.48 1004.06 1004.47 1004.78 1005.13 1005.62 1005.58 1005.60 1005.77 1005.96 1006.28 1006.66 1007.12 1007.45 1007.52 1007.80 1008.09 1008.31 1008.77 1009.41 1009.97 1010.47 1010.80 1011.42 1011.96 1012.25 1012.50 1012.70 1012.80 1013.03 1013.32 1014.14
994.15 995.30 996.21 997.05 997.99 998.97 999.66 1000.59 1001.42 1002.32 1003.23 1003.91 1004.29 1004.83 1005.24 1005.61 1005.86 1005.91 1005.84 1005.97 1006.29 1006.49 1007.04 1007.40 1007.76 1008.02 1008.31 1008.54 1008.83 1009.21 1009.59 1010.07 1010.53 1010.98 1011.49 1011.98 1012.35 1012.73 1012.99 1013.12 1013.26 1013.55 1013.78
994.92 995.88 996.51 997.47 998.42 999.19 999.97 1001.13 1001.99 1002.75 1003.33 1004.09 1004.62 1005.15 1005.61 1005.91 1006.25 1006.24 1006.22 1006.48 1006.69 1006.94 1007.28 1007.65 1007.97 1008.42 1008.71 1009.09 1009.33 1009.67 1010.00 1010.27 1010.83 1011.25 1011.65 1012.06 1012.37 1012.70 1013.10 1013.43 1013.60 1013.74 1013.95
995.64 996.51 997.11 997.89 998.88 999.64 1000.53 1001.42 1002.29 1002.94 1003.65 1004.30 1004.81 1005.27 1005.69 1006.09 1006.43 1006.69 1006.93 1007.24 1007.32 1007.66 1008.05 1008.33 1008.53 1008.87 1009.05 1009.59 1010.06 1010.22 1010.39 1010.61 1010.99 1011.48 1011.92 1012.28 1012.65 1013.01 1013.30 1013.50 1013.88 1014.08 1014.31
995.92 997.03 997.76 998.35 999.38 1000.66 1001.82 1002.64 1002.75 1003.16 1003.40 1004.05 1004.73 1005.11 1005.64 1006.18 1006.59 1006.76 1007.06 1007.44 1007.66 1007.86 1008.15 1008.48 1008.91 1009.25 1009.65 1009.93 1010.26 1010.53 1010.80 1011.05 1011.37 1011.74 1012.12 1012.50 1012.86 1013.12 1013.45 1013.61 1013.81 1014.10 1014.38
996.54 997.49 998.19 999.14 1000.14 1001.23 1002.12 1003.18 1003.58 1003.78 1003.89 1004.16 1004.64 1005.08 1005.78 1006.13 1006.71 1007.10 1007.37 1007.63 1007.98 1008.17 1008.31 1008.61 1009.26 1009.62 1009.89 1010.24 1010.60 1010.96 1011.21 1011.36 1011.63 1011.91 1012.26 1012.57 1012.91 1013.18 1013.50 1013.70 1013.92 1014.14 1014.41
996.54 997.73 998.83 999.58 1000.57 1001.39 1002.17 1002.81 1003.88 1004.99 1004.82 1005.07 1005.26 1005.59 1006.04 1006.65 1007.18 1007.59 1007.93 1008.20 1008.24 1008.25 1008.45 1009.07 1009.44 1009.82 1010.12 1010.45 1010.77 1011.06 1011.33 1011.53 1011.67 1011.96 1012.22 1012.49 1012.76 1013.14 1013.46 1013.82 1014.06 1014.20 1014.39
997.02 997.98 999.05 1000.03 1000.62 1001.38 1002.04 1002.78 1003.45 1004.15 1004.99 1006.05 1006.64 1006.71 1006.83 1007.35 1007.76 1008.11 1008.37 1008.44 1008.68 1008.72 1008.96 1009.26 1009.62 1009.95 1010.24 1010.50 1010.81 1011.06 1011.31 1011.56 1011.71 1011.94 1012.18 1012.35 1012.64 1012.87 1013.19 1013.45 1013.73 1014.06 1014.24
997.70 998.71 999.51 1000.29 1000.98 1001.65 1002.27 1002.91 1003.45 1004.22 1005.13 1006.25 1007.15 1007.57 1008.17 1008.56 1008.72 1008.90 1008.74 1008.73 1008.96 1009.11 1009.26 1009.50 1009.74 1010.00 1010.31 1010.60 1010.86 1011.07 1011.24 1011.47 1011.66 1011.86 1012.06 1012.25 1012.44 1012.70 1012.96 1013.24 1013.55 1013.83 1014.06
998.17 998.84 999.68 1000.54 1001.45 1002.04 1002.66 1003.21 1003.96 1004.67 1005.52 1006.40 1007.31 1008.12 1008.74 1008.91 1009.16 1009.23 1009.04 1008.97 1009.03 1009.17 1009.33 1009.53 1009.76 1009.91 1010.16 1010.40 1010.66 1010.93 1011.34 1011.64 1011.72 1011.84 1011.96 1012.12 1012.28 1012.50 1012.81 1013.02 1013.28 1013.48 1013.45
998.67 999.55 1000.01 1000.85 1001.69 1002.49 1003.14 1003.72 1004.34 1004.98 1005.75 1006.75 1007.81 1008.59 1008.64 1009.00 1009.33 1009.47 1009.49 1009.73 1009.84 1009.86 1009.63 1009.61 1009.77 1009.98 1010.15 1010.37 1010.62 1010.87 1011.08 1011.28 1011.41 1011.58 1011.71 1011.83 1012.11 1012.35 1012.36 1012.42 1012.75 1012.93 1013.02
999.02 999.87 1000.48 1001.14 1002.03 1002.89 1003.59 1004.18 1004.83 1005.47 1006.29 1007.21 1008.18 1008.98 1008.96 1009.29 1009.85 1010.36 1010.70 1010.90 1011.14 1011.20 1011.22 1011.14 1011.32 1011.49 1011.64 1011.72 1011.71 1011.42 1011.15 1011.21 1011.32 1011.39 1011.55 1011.65 1011.80 1012.00 1012.03 1012.10 1012.19 1012.26 1012.32
999.45 1000.28 1001.02 1001.64 1002.41 1003.27 1003.99 1004.71 1005.31 1005.99 1006.78 1007.56 1008.34 1009.09 1009.62 1010.25 1010.83 1011.36 1011.78 1012.18 1012.33 1012.44 1012.60 1012.51 1012.58 1012.73 1012.74 1012.71 1012.67 1012.58 1012.30 1012.32 1012.23 1011.95 1011.74 1011.67 1011.72 1011.61 1011.56 1011.82 1011.99 1012.17 1012.34
999.83 1000.48 1001.31 1002.10 1002.91 1003.61 1004.40 1005.27 1006.02 1006.69 1007.29 1008.06 1008.90 1009.83 1010.59 1011.26 1011.80 1012.43 1012.95 1013.34 1013.46 1013.61 1013.74 1013.72 1013.99 1014.11 1014.07 1013.82 1013.70 1013.49 1013.45 1013.08 1012.68 1012.33 1012.09 1012.17 1012.29 1012.36 1012.25 1012.50 1012.85 1012.93 1013.21
1000.85 1001.45 1002.14 1002.81 1003.64 1004.37 1005.18 1005.99 1006.94 1007.78 1008.64 1009.32 1010.13 1010.91 1011.60 1012.25 1012.83 1013.42 1013.85 1014.15 1014.46 1014.65 1014.90 1014.96 1015.02 1015.05 1015.05 1014.89 1014.79 1014.57 1014.43 1013.87 1013.46 1013.18 1013.24 1013.28 1013.30 1013.46 1013.49 1013.48 1013.61 1013.67 1013.59
1002.38 1002.79 1003.45 1004.18 1004.73 1005.51 1006.46 1007.44 1008.38 1009.19 1009.96 1010.74 1011.52 1012.17 1012.67 1013.26 1013.91 1014.42 1014.81 1015.13 1015.39 1015.68 1015.92 1016.11 1016.23 1016.16 1016.13 1016.04 1015.94 1015.71 1015.20 1014.88 1014.71 1014.20 1014.17 1014.24 1014.35 1014.85 1015.04 1014.94 1014.74 1014.90 1014.69
Wind_Speed
10 9 8 8 8 8 8 7 8 8 9 9 8 7 7 7 6 7 6 6 7 6 5 6 6 5 4 3 3 2 3 3 3 1 1 1 3 4 5 5 6 5 4
10 9 9 8 10 9 8 8 9 8 8 10 9 8 7 7 7 7 7 6 7 7 6 6 6 4 4 4 4 4 3 3 3 3 2 2 3 4 5 7 5 4 4
9 11 11 11 11 10 9 9 9 10 9 8 8 8 9 8 7 7 7 7 6 7 7 7 6 6 5 3 4 4 3 2 2 4 3 2 3 2 6 6 5 5 4
11 12 12 11 10 10 11 11 10 9 10 9 8 8 9 8 7 6 6 6 6 6 6 6 6 7 6 6 5 5 4 4 4 6 5 4 3 3 4 5 5 4 4
9 11 9 9 9 10 11 11 10 10 9 9 9 7 7 7 5 7 6 6 6 6 5 5 5 6 8 8 6 6 6 4 6 7 4 4 4 3 5 2 4 4 4
8 8 10 11 11 11 12 12 11 9 10 10 8 8 7 4 4 8 8 6 5 6 5 5 4 5 6 10 10 11 10 11 9 5 3 6 4 5 4 5 5 4 3
11 10 12 13 13 13 12 13 12 9 9 8 8 7 6 5 4 8 8 5 5 5 5 5 4 3 5 7 5 9 6 5 6 7 9 8 8 6 7 6 2 3 3
10 12 14 14 14 12 12 11 11 8 9 8 7 7 7 3 4 8 8 5 4 4 5 6 6 5 4 8 7 6 6 5 5 3 7 6 7 8 9 5 4 7 5
13 14 15 14 14 12 12 10 9 10 8 6 6 7 8 5 5 8 8 5 5 4 4 5 4 6 6 10 9 9 6 4 6 7 9 11 14 12 10 8 5 8 3
16 15 14 13 13 12 12 10 6 8 9 7 7 7 7 5 4 7 6 4 6 4 5 4 8 7 8 8 10 10 8 4 7 6 6 7 7 11 11 7 7 7 4
15 14 13 12 11 11 8 11 11 10 9 8 9 7 7 5 4 5 6 3 5 4 4 4 3 9 9 9 10 7 6 7 7 8 7 5 5 5 3 4 3 8 4
13 13 12 11 10 9 13 9 11 11 11 9 9 6 4 4 4 4 7 7 4 6 4 3 5 9 9 10 7 11 13 9 5 6 6 5 5 4 3 4 5 4 3
12 11 12 12 11 11 12 10 9 8 8 6 5 5 4 2 3 8 9 9 8 5 4 6 11 11 11 9 11 13 8 6 5 5 5 3 3 4 6 4 4 5 4
13 11 10 11 10 9 8 7 8 7 8 6 6 5 4 3 3 3 4 5 8 8 10 5 8 9 10 8 6 5 4 4 5 4 4 4 4 4 4 2 2 3 2
12 10 9 10 11 9 8 4 4 5 6 9 7 6 6 4 2 5 6 4 4 6 8 5 5 4 5 5 4 4 4 4 5 4 4 4 4 4 2 2 2 2 2
12 9 8 8 8 8 7 6 16 9 8 10 10 7 3 9 10 9 10 12 12 9 4 5 5 4 5 4 4 4 3 4 3 4 4 4 4 4 3 2 2 2 3
11 11 7 8 7 8 7 7 7 8 16 14 9 11 11 10 11 11 13 10 8 7 5 5 5 4 4 4 4 3 3 3 4 4 4 4 4 4 4 3 3 2 3
11 13 8 6 6 6 6 7 7 7 8 4 10 7 10 11 12 12 9 7 4 4 3 4 4 4 3 3 3 3 3 3 3 4 4 4 4 4 3 3 3 3 3
10 7 8 7 6 7 7 7 8 9 8 7 5 7 11 12 12 8 5 3 3 3 3 3 3 4 3 4 4 3 4 4 3 3 3 3 3 3 2 3 4 5 4
7 14 10 8 7 7 7 8 9 9 8 7 6 4 3 4 3 1 2 2 3 3 4 4 3 3 3 3 3 3 3 3 3 3 3 3 3 3 3 4 4 4 5
7 7 13 9 8 8 8 8 7 8 8 7 7 5 5 6 5 2 5 7 6 5 4 3 3 3 1 3 3 4 4 4 4 4 4 4 4 4 5 6 6 5 5
8 8 8 10 9 9 9 9 8 8 9 9 7 3 7 6 6 6 7 7 7 7 7 7 7 7 6 6 5 4 2 3 3 3 4 4 4 4 4 5 5 6 6
10 10 9 8 9 11 9 10 8 8 8 8 7 6 7 8 7 8 8 7 7 8 8 8 8 7 7 7 7 6 5 5 4 3 2 2 3 2 3 2 1 1 3
9 11 11 10 9 9 9 10 9 10 9 9 9 9 8 9 9 10 9 8 8 9 9 9 10 12 9 9 8 8 6 5 4 5 6 4 4 6 5 7 6 7 5
9 10 9 10 9 9 10 10 11 11 10 10 10 10 10 10 10 10 9 9 9 10 11 10 9 12 15 17 15 15 12 11 11 8 7 8 10 10 7 6 6 7 8
9 11 10 8 10 11 11 11 11 11 10 10 10 10 10 10 10 10 9 10 10 10 12 9 12 16 16 14 16 16 17 17 14 13 10 10 11 9 8 9 11 7 8
Wind_Direction
211 203 187 179 169 168 168 156 161 162 151 145 150 146 145 149 148 132 150 147 148 154 156 159 163 157 164 154 143 143 158 138 144 36 86 104 73 85 73 81 94 79 100
196 177 182 163 158 156 147 156 153 141 142 147 151 147 147 147 140 146 146 153 154 162 162 155 177 165 163 157 152 162 167 165 129 140 110 102 93 89 87 81 81 80 96
170 165 156 155 152 147 148 146 142 139 141 138 138 145 147 145 150 147 155 163 166 169 170 171 180 170 173 160 162 155 167 128 165 134 120 100 87 103 89 75 70 64 58
163 156 149 152 149 144 142 141 133 140 139 148 149 141 143 150 146 149 151 159 175 178 180 180 182 185 180 169 163 167 149 118 113 118 116 102 95 77 86 113 88 61 64
151 132 141 131 134 144 137 132 138 137 138 136 128 113 115 128 147 156 161 169 169 180 186 187 207 194 185 170 153 165 140 120 126 137 116 111 114 127 129 97 104 95 64
120 124 134 131 135 139 126 130 130 126 125 122 106 114 122 118 163 174 160 164 174 184 186 203 174 181 181 165 166 158 162 150 157 138 128 136 125 119 128 131 131 122 101
127 147 136 131 130 124 131 126 120 119 104 105 106 116 116 119 137 150 137 141 165 176 167 160 165 163 165 150 159 155 136 117 148 146 151 171 157 155 142 134 120 85 125
138 140 130 127 113 113 117 118 114 109 117 116 111 112 109 100 107 131 137 130 135 167 163 166 154 151 154 139 150 128 120 111 125 141 162 153 135 149 143 138 122 110 83
153 143 126 124 125 125 118 122 112 111 106 103 106 110 117 94 86 125 111 108 103 102 142 147 174 117 159 146 134 126 112 88 53 103 125 130 134 136 132 131 134 135 112
145 129 125 131 132 126 127 121 105 107 107 106 102 105 102 104 97 124 117 114 114 100 75 84 93 109 142 154 127 132 128 131 118 97 83 71 125 141 151 146 150 143 114
128 124 127 128 122 121 110 119 116 108 103 96 107 107 107 98 69 98 116 110 125 114 115 109 91 122 120 109 111 125 133 124 110 111 113 113 107 119 99 112 135 148 137
126 131 126 121 122 124 116 111 112 113 114 117 112 96 78 91 68 95 103 106 105 119 114 94 111 122 112 111 97 119 120 113 111 115 120 124 133 140 129 126 121 100 67
120 122 127 123 125 124 117 117 111 117 121 117 120 122 111 89 72 69 82 91 87 99 99 108 114 103 96 79 112 121 120 114 117 121 125 118 131 122 115 96 98 116 83
123 120 120 118 113 112 114 125 132 127 127 127 140 137 124 109 102 94 95 93 84 86 100 86 91 85 86 106 106 82 81 107 122 114 101 97 106 122 133 123 123 139 131
120 114 115 115 109 91 64 48 104 78 139 151 157 148 146 142 148 137 136 125 117 116 115 101 97 98 105 97 90 91 95 107 110 114 120 118 121 124 115 136 121 134 163
123 121 114 112 113 120 120 92 46 51 75 126 129 139 88 120 126 124 116 116 123 139 101 116 112 119 116 108 103 92 88 105 111 123 126 133 136 139 134 135 129 161 172
115 117 112 115 125 135 135 132 116 54 69 60 89 113 120 137 119 115 112 98 114 105 113 110 116 114 115 120 128 134 127 135 129 139 146 149 148 152 154 167 166 165 189
105 111 119 119 120 118 126 125 126 135 119 90 36 66 98 111 117 119 116 89 93 73 101 124 129 131 131 134 139 142 142 145 152 150 158 165 166 166 164 172 184 188 198
118 116 113 110 107 108 112 121 129 123 118 111 106 64 60 69 81 69 15 93 115 110 120 127 145 149 156 156 164 164 160 167 165 160 169 177 172 171 176 177 189 208 207
103 119 117 119 116 104 102 116 120 118 115 117 114 101 95 117 102 96 45 64 113 133 152 158 168 170 175 170 167 155 153 162 176 187 184 189 199 187 204 207 208 219 225
122 113 116 107 107 104 108 105 105 109 109 102 103 113 123 122 127 91 48 48 32 27 20 63 52 68 113 154 161 169 171 175 181 186 189 203 190 204 206 216 229 227 225
108 117 117 122 114 110 111 112 112 111 111 116 120 112 120 101 85 67 58 55 45 38 33 46 51 42 35 31 12 352 208 188 188 201 206 227 224 226 223 231 235 233 238
116 114 116 112 111 116 118 125 121 117 118 124 114 107 87 81 78 72 66 58 54 53 41 44 44 47 35 35 31 18 25 30 8 353 349 350 351 291 220 231 263 51 62
111 117 120 119 125 119 119 118 112 99 99 95 90 85 86 86 82 76 70 65 61 60 54 52 51 48 36 36 30 30 18 358 341 12 36 54 56 32 50 62 48 46 34
88 94 97 109 106 99 101 104 94 88 83 83 87 87 86 86 83 78 74 72 69 67 62 58 52 51 47 43 39 39 21 29 41 33 39 47 55 45 49 68 70 60 58
85 88 90 92 97 100 100 95 88 88 87 85 81 80 84 86 86 87 83 81 78 70 68 61 59 59 53 49 46 37 35 35 31 38 50 51 53 38 32 42 50 44 62